KAI-1 (RS26S) (53378 NORAD) Tracking and Keplerian Element Data

This shows tracking and keplerian element data for the satellite.

Feedback or suggestion? Click here.




ElementValue
Catalog53378
NameKAI-1 (RS26S)
Epoch Orbit10281
Epoch Day160.14713118
Epoch Year2024
RAAN78.5592
Inclination97.3966
Eccentricity0.0004686
Argument of Perigee110.7628
Mean Anonmoly249.4136
Mean Motion15.68947533
Decay Rate0.00150161
L11 53378U 22096J 24160.14713118 .00150161 00000+0 12862-2 0 9998
L22 53378 97.3966 78.5592 0004686 110.7628 249.4136 15.68947533102815



Live tracking and technical data element details for KAI-1 (RS26S) (NORAD 53378). KAI-1 (RS26S) can be tracked NOW for your location showing map with azimuth and elevation plus other details from your city location.







IsCatalogInMostPopularTable: catalog: 53378, numindb: 40
Update: records affected: 1



GetName: 53378 KAI-1 (RS26S)

Hit Count: updated at: Thu, 23 Jan 2025 17:21:53 GMT